Wheeler Lake Weather Center

Moon Phase Calendar



Wheeler Lake Water Level
Online Cameras

 


      

Current Conditions in Trinity
4/17/2024 3:22:22 AM

70°F
Feels Like 70
Clouds
Humidity
71%
Pressure
30.12"
Wind
9.2 mph (S)
Dew Point
60°F
UV Index
0/10 (Low)
Visibility
6 mi

Hourly Forecast

Date & Time Wed, Apr 17
3:00 AM
Wed, Apr 17
4:00 AM
Wed, Apr 17
5:00 AM
Wed, Apr 17
6:00 AM
Wed, Apr 17
7:00 AM
Wed, Apr 17
8:00 AM
Wed, Apr 17
9:00 AM
Wed, Apr 17
10:00 AM
Wed, Apr 17
11:00 AM
Wed, Apr 17
12:00 PM
Wed, Apr 17
1:00 PM
Wed, Apr 17
2:00 PM
Wed, Apr 17
3:00 PM
Wed, Apr 17
4:00 PM
Wed, Apr 17
5:00 PM
Wed, Apr 17
6:00 PM
Wed, Apr 17
7:00 PM
Wed, Apr 17
8:00 PM
Wed, Apr 17
9:00 PM
Wed, Apr 17
10:00 PM
Wed, Apr 17
11:00 PM
Thu, Apr 18
12:00 AM
Thu, Apr 18
1:00 AM
Thu, Apr 18
2:00 AM
Thu, Apr 18
3:00 AM
Thu, Apr 18
4:00 AM
Thu, Apr 18
5:00 AM
Thu, Apr 18
6:00 AM
Thu, Apr 18
7:00 AM
Thu, Apr 18
8:00 AM
Thu, Apr 18
9:00 AM
Thu, Apr 18
10:00 AM
Thu, Apr 18
11:00 AM
Thu, Apr 18
12:00 PM
Thu, Apr 18
1:00 PM
Thu, Apr 18
2:00 PM
Thu, Apr 18
3:00 PM
Thu, Apr 18
4:00 PM
Thu, Apr 18
5:00 PM
Thu, Apr 18
6:00 PM
Thu, Apr 18
7:00 PM
Thu, Apr 18
8:00 PM
Thu, Apr 18
9:00 PM
Thu, Apr 18
10:00 PM
Thu, Apr 18
11:00 PM
Fri, Apr 19
12:00 AM
Fri, Apr 19
1:00 AM
Fri, Apr 19
2:00 AM
Condition
Clouds

Clouds

Clouds

Clouds

Clouds

Clouds

Rain

Rain

Rain

Rain

Rain

Rain

Clouds

Clouds

Clouds

Clouds

Clouds

Clouds

Clouds

Clouds

Clouds

Clouds

Clouds

Clouds

Clouds

Clouds

Clouds

Clouds

Clouds

Clouds

Clouds

Clouds

Clouds

Clouds

Clouds

Clear

Clear

Clear

Rain

Rain

Rain

Rain

Rain

Rain

Rain

Rain

Clouds

Clouds
Temperature 70°F69°F68°F67°F65°F65°F66°F64°F65°F68°F67°F68°F70°F71°F71°F70°F68°F67°F66°F65°F65°F64°F64°F64°F63°F62°F62°F61°F62°F66°F70°F73°F76°F79°F81°F81°F82°F83°F77°F76°F72°F69°F68°F67°F68°F67°F66°F65°F
Feels Like 70°F69°F68°F67°F65°F65°F67°F64°F66°F69°F68°F69°F71°F72°F72°F71°F69°F67°F67°F66°F65°F65°F64°F64°F64°F63°F62°F62°F63°F67°F71°F74°F77°F79°F82°F83°F84°F86°F78°F77°F73°F70°F69°F68°F69°F68°F67°F66°F
Cloudiness 20%36%52%68%84%100%100%100%100%100%100%100%100%100%100%100%100%100%100%100%100%87%90%100%100%99%75%61%51%41%34%31%32%32%26%1%0%3%30%40%50%100%62%69%71%65%53%100%
Visibility 6 mi6 mi6 mi6 mi6 mi6 mi2 mi1 mi6 mi6 mi6 mi6 mi6 mi6 mi6 mi6 mi6 mi6 mi6 mi6 mi6 mi6 mi6 mi6 mi6 mi6 mi6 mi6 mi6 mi6 mi6 mi6 mi6 mi6 mi6 mi6 mi6 mi6 mi6 mi5 mi6 mi6 mi6 mi6 mi6 mi6 mi6 mi6 mi
Precipitation 0%0%0%0%0%0%100%100%100%100%100%69%54%48%44%37%32%0%0%0%0%0%0%0%0%0%0%0%0%0%0%0%0%0%0%0%0%3%43%100%100%88%98%100%100%100%80%0%
Humidity 71%73%75%79%83%87%88%96%94%92%94%92%86%85%88%90%94%95%95%96%97%97%97%97%97%97%97%97%98%92%86%80%73%65%59%57%56%56%72%75%79%90%94%95%94%95%95%96%
Dew Point 60°F60°F60°F60°F60°F60°F62°F63°F63°F65°F65°F66°F66°F67°F67°F67°F66°F65°F65°F64°F64°F63°F63°F63°F62°F61°F61°F60°F62°F64°F65°F67°F67°F66°F65°F65°F65°F66°F67°F68°F65°F66°F66°F66°F66°F65°F64°F64°F
Pressure 30.12"30.09"30.09"30.06"30.06"30.03"30.03"30.06"30.06"30.06"30.06"30.03"30.03"30"30"30.03"30.03"30.03"30.06"30.06"30.06"30.06"30.06"30.03"30.06"30.06"30.06"30.06"30.09"30.09"30.06"30.06"30.06"30.03"30"29.97"29.94"29.94"29.94"29.94"29.97"29.94"29.97"29.97"29.97"29.94"29.97"29.97"
Wind Speed 12.4 mph13 mph11.7 mph11 mph12.1 mph10.1 mph13.2 mph12.5 mph11.7 mph10.4 mph8.9 mph9 mph11.1 mph10.2 mph8.9 mph7.4 mph4.4 mph3.7 mph3.8 mph3.6 mph3.7 mph3 mph4.1 mph4.4 mph4.8 mph4.5 mph5 mph4.5 mph5 mph5.5 mph4.8 mph5.7 mph7.1 mph8.6 mph9.6 mph10.5 mph10.5 mph8.6 mph5.1 mph7.7 mph14.2 mph6.9 mph7.4 mph7 mph7.9 mph7.2 mph6.9 mph6.3 mph
Wind
Direction
193°
SSW
189°
S
187°
S
190°
S
186°
S
186°
S
208°
SSW
186°
S
191°
S
226°
SW
230°
SW
221°
SW
232°
SW
231°
SW
234°
SW
244°
WSW
229°
SW
200°
SSW
201°
SSW
189°
S
186°
S
163°
SSE
181°
S
162°
SSE
161°
SSE
163°
SSE
169°
S
173°
S
170°
S
181°
S
166°
SSE
161°
SSE
181°
S
173°
S
167°
SSE
169°
S
170°
S
198°
SSW
203°
SSW
232°
SW
239°
WSW
201°
SSW
196°
SSW
197°
SSW
193°
SSW
184°
S
175°
S
194°
SSW

Daily Forecast

Date High Low Precip. Humidity
Today
Apr 17

Rain
71 °F
64 °F
100%
92%
Thursday
Apr 18

Rain
83 °F
61 °F
100%
65%
Friday
Apr 19

Rain
69 °F
56 °F
100%
90%
Saturday
Apr 20

Clouds
65 °F
53 °F
0%
49%
Sunday
Apr 21

Rain
52 °F
48 °F
100%
89%
Monday
Apr 22

Clouds
64 °F
48 °F
0%
52%
Tuesday
Apr 23

Clouds
69 °F
47 °F
0%
52%
Wednesday
Apr 24

Clouds
79 °F
55 °F
0%
57%
Thursday
Apr 25

Rain
68 °F
63 °F
37%
91%
Friday
Apr 26

Rain
69 °F
54 °F
100%
59%
Saturday
Apr 27

Clear
72 °F
50 °F
0%
56%
Sunday
Apr 28

Clouds
75 °F
53 °F
0%
47%
Monday
Apr 29

Clouds
78 °F
57 °F
0%
51%
Tuesday
Apr 30

Clouds
80 °F
60 °F
0%
59%
Wednesday
May 1

Rain
83 °F
62 °F
20%
50%
Thursday
May 2

Clouds
83 °F
65 °F
4%
53%

Temperature 8-14 Day Outlook



Precipitation 8-14 Day Outlook




Quick Links
Wheeler Lake News
Wheeler Lake Photos
Wheeler Lake Videos




About Us
Contact Us
Site Map
Search Site
Advertise With Us
   
www.WheelerLake.info
THE WHEELER LAKE WEBSITE

Copyright 2024, Lakes Online
Privacy    |    Legal